Terug naar catalogus

CZ-6A DEB

ActiefSSO
NORAD 54965·DEBRIS·🇨🇳 China

Gelanceerd Nov 11, 2022 vanaf Taiyuan Satellite Launch Center

Loading…

Volgende Passages (komende 24 uur)

TLE

VersSource: Space-Track

Epoch: Sep 14, 2026, 10:18 UTC

1 54965U 22151TE  26257.42952804  .00000176  00000-0  12889-3 0  9991
2 54965  98.8394 238.1837 0087076 140.9320 219.8180 14.06084613196706

Volg CZ-6A DEB in realtime met AllMySat

Download on the App Store